Date,TemperatureHighF,TemperatureAvgF,TemperatureLowF,DewpointHighF,DewpointAvgF,DewpointLowF,HumidityHigh,HumidityAvg,HumidityLow,PressureMaxIn,PressureMinIn,WindSpeedMaxMPH,WindSpeedAvgMPH,GustSpeedMaxMPH,PrecipitationSumIn
2013-1-1,51.8,40.4,33.2,39.0,34.7,31.7,95,81,58,30.33,30.22,13,1,13,0.00
2013-1-2,53.9,40.5,30.4,40.0,33.7,28.1,93,78,53,30.28,30.16,5,0,5,0.00
2013-1-3,51.9,39.6,30.2,40.7,34.8,28.4,94,84,60,30.30,30.20,5,0,5,0.00
2013-1-4,57.1,42.3,31.3,42.1,36.5,29.4,95,81,54,30.33,30.21,4,0,4,0.00
2013-1-5,52.7,42.1,33.5,45.8,39.3,31.7,95,90,72,30.30,30.12,10,1,10,0.51
2013-1-6,52.5,44.9,38.0,47.5,42.6,36.2,97,92,77,30.21,30.10,9,0,10,0.21
2013-1-7,49.7,42.0,37.4,44.1,39.8,35.8,100,92,77,30.28,30.16,12,0,12,0.01
2013-1-8,56.1,45.0,36.2,47.0,41.5,34.9,96,88,69,30.28,30.16,5,0,5,0.00
2013-1-9,51.0,44.6,38.2,48.5,41.1,34.2,96,88,70,30.19,29.94,15,1,15,0.00
2013-1-10,49.5,40.0,32.6,39.1,33.3,30.2,94,78,52,30.17,30.05,16,1,16,0.00
2013-1-11,51.9,39.3,29.9,36.1,31.2,27.5,95,75,42,30.25,30.14,9,0,9,0.00
2013-1-12,46.7,38.0,31.5,33.2,29.1,25.0,89,72,46,30.27,30.16,9,1,9,0.00
2013-1-13,44.2,34.6,25.1,31.8,27.1,22.2,92,75,50,30.29,30.19,15,2,17,0.00
2013-1-14,49.2,39.4,29.4,29.2,25.2,21.6,77,58,38,30.44,30.23,18,2,18,0.00
2013-1-15,51.6,39.3,29.8,35.3,31.0,25.3,88,73,52,30.53,30.41,5,0,5,0.00
2013-1-16,56.1,41.0,29.6,40.8,33.9,27.5,93,77,53,30.47,30.30,5,0,5,0.00
2013-1-17,58.9,42.0,29.0,40.2,33.9,27.0,94,75,46,30.32,30.19,4,0,4,0.00
2013-1-18,59.0,43.0,29.9,41.2,35.6,27.9,95,77,43,30.28,30.17,11,0,11,0.00
2013-1-19,60.5,44.5,30.8,41.9,36.2,28.5,94,75,41,30.31,30.18,10,0,10,0.00
2013-1-20,62.5,46.1,31.0,45.2,35.6,28.8,94,70,38,30.27,30.14,6,0,9,0.00
2013-1-21,64.1,45.9,33.3,42.7,36.5,30.9,93,73,39,30.22,30.12,5,0,5,0.00
2013-1-22,60.8,46.2,34.2,45.4,39.0,32.2,94,78,51,30.18,30.04,7,0,7,0.00
2013-1-23,58.9,48.5,43.8,49.4,44.4,39.4,95,86,60,30.12,29.99,13,1,13,0.16
2013-1-24,56.4,51.4,47.0,52.9,49.5,45.7,96,93,84,30.21,30.09,13,1,13,0.06
2013-1-25,65.4,56.9,51.8,58.1,53.5,50.7,97,89,72,30.20,30.04,9,0,9,0.01
2013-1-26,63.1,53.9,46.0,53.0,48.0,40.2,97,82,49,30.04,29.93,17,2,17,0.00
2013-1-27,54.7,45.9,37.1,43.2,38.4,35.1,95,76,48,30.17,30.01,13,1,13,0.01
2013-1-28,57.2,45.2,34.4,41.8,37.0,32.0,93,74,49,30.27,30.14,16,1,16,0.00
2013-1-29,60.4,47.4,37.2,43.4,38.8,34.5,92,74,45,30.35,30.24,19,2,19,0.00
2013-1-30,63.9,49.1,37.5,45.5,40.6,35.0,91,74,50,30.37,30.27,10,0,10,0.00
2013-1-31,63.6,49.4,37.0,49.9,43.0,35.1,95,80,60,30.33,30.20,7,0,7,0.00
2013-2-1,64.7,49.4,35.7,50.4,43.5,33.9,96,81,57,30.25,30.14,7,0,7,0.00
2013-2-2,64.7,51.0,42.0,49.0,44.2,40.1,95,79,51,30.31,30.21,7,0,7,0.00
2013-2-3,63.4,49.4,39.7,50.6,44.6,38.4,96,84,61,30.26,30.12,7,0,7,0.00
2013-2-4,64.5,51.3,39.9,50.7,45.4,38.0,95,81,58,30.19,30.06,7,0,7,0.00
2013-2-5,58.1,49.0,42.6,47.6,43.8,40.0,93,83,67,30.14,30.04,14,1,15,0.00
2013-2-6,61.9,47.7,36.6,47.1,41.0,35.0,96,79,46,30.20,30.11,12,1,12,0.00
2013-2-7,58.7,48.1,42.2,48.2,40.3,34.5,91,76,42,30.17,29.99,15,3,15,0.03
2013-2-8,57.1,45.7,36.4,42.8,36.1,31.0,95,72,43,30.02,29.92,23,3,23,0.00
2013-2-9,58.9,45.6,33.6,35.7,32.6,29.0,89,62,40,30.10,29.97,11,0,13,0.00
2013-2-10,61.3,46.4,33.0,41.8,35.9,30.4,92,69,44,30.15,30.00,14,1,14,0.00
2013-2-11,65.2,48.7,35.2,37.9,33.3,28.8,78,58,34,30.25,30.08,8,0,9,0.00
2013-2-12,62.4,48.2,35.2,41.9,37.4,31.7,90,68,44,30.40,30.24,6,0,6,0.00
2013-2-13,65.6,50.0,36.0,44.6,39.6,33.1,92,70,43,30.36,30.21,7,0,7,0.00
2013-2-14,71.7,52.8,37.3,49.4,42.9,35.1,93,72,44,30.27,30.16,10,0,10,0.00
2013-2-15,72.0,54.3,39.2,51.2,44.7,37.1,94,72,44,30.31,30.22,6,0,6,0.00
2013-2-16,69.5,54.1,42.1,48.4,44.1,39.4,92,71,43,30.26,30.02,9,0,9,0.00
2013-2-17,66.2,52.5,39.8,46.0,41.6,36.3,94,69,44,30.06,29.94,13,0,13,0.00
2013-2-18,59.0,49.0,42.4,46.9,41.5,36.9,88,76,61,30.01,29.91,22,3,22,0.00
2013-2-19,47.7,43.2,36.3,44.4,38.9,34.2,92,85,74,29.92,29.74,22,2,22,0.39
2013-2-20,60.2,45.0,32.1,41.6,34.4,30.3,95,70,38,30.04,29.84,22,2,22,0.01
2013-2-21,61.6,47.5,36.0,42.1,36.1,32.6,91,68,35,30.18,30.03,18,1,18,0.00
2013-2-22,66.3,51.0,34.6,43.4,37.7,30.9,88,62,36,30.26,30.13,16,1,16,0.00
2013-2-23,59.9,50.6,42.3,44.0,35.4,28.6,90,59,31,30.25,30.12,23,4,23,0.00
2013-2-24,64.4,50.5,37.6,33.5,31.0,28.1,71,49,28,30.25,30.15,20,3,20,0.00
2013-2-25,64.0,51.5,40.6,45.1,37.2,32.5,78,59,37,30.27,30.16,12,1,12,0.00
2013-2-26,66.2,51.0,38.1,36.2,32.8,29.5,77,53,28,30.22,30.11,25,5,25,0.00
2013-2-27,70.8,53.2,36.4,42.5,35.9,30.3,81,55,28,30.35,30.19,9,0,9,0.00
2013-2-28,72.5,58.3,44.3,46.6,42.7,38.2,82,58,35,30.45,30.35,11,0,11,0.00
2013-3-1,74.8,58.5,42.7,52.6,46.6,39.5,90,67,43,30.42,30.24,11,0,11,0.00
2013-3-2,73.0,59.8,47.1,55.2,50.1,43.7,92,72,49,30.25,30.05,7,0,7,0.00
2013-3-3,67.6,55.5,0.0,54.8,47.0,0.0,84,68,58,30.07,30.00,12,1,12,0.00
2013-3-4,68.3,54.8,45.5,53.6,47.4,39.9,96,77,58,30.14,30.02,12,2,12,0.00
2013-3-5,61.6,52.9,44.9,46.1,42.0,37.3,84,67,53,30.04,29.84,20,4,20,0.11
2013-3-6,57.7,51.6,45.1,46.8,42.6,38.2,92,72,50,30.07,29.85,23,3,23,0.23
2013-3-7,59.0,49.9,39.8,44.8,41.3,37.1,92,74,53,30.01,29.87,9,0,9,0.00
2013-3-8,68.7,52.0,37.5,46.1,39.6,33.4,88,67,32,30.03,29.81,16,1,16,0.00
2013-3-9,71.2,54.7,40.4,46.8,39.2,33.8,92,61,27,30.28,30.02,18,2,18,0.00
2013-3-10,71.0,54.5,38.4,47.0,41.3,34.1,92,63,36,30.37,30.24,9,0,10,0.00
2013-3-11,74.8,57.8,41.8,49.9,45.0,38.2,92,65,37,30.27,30.08,9,0,9,0.00
2013-3-12,77.7,61.8,44.9,53.9,49.1,41.2,91,66,42,30.17,30.06,6,0,6,0.00
2013-3-13,79.7,63.1,46.9,56.8,51.5,43.2,92,68,43,30.18,30.06,11,0,11,0.00
2013-3-14,80.5,64.0,48.8,59.2,52.7,45.4,92,69,40,30.15,30.05,9,0,9,0.00
2013-3-15,79.5,62.2,49.1,56.2,51.1,45.9,91,70,38,30.11,30.00,11,0,11,0.00
2013-3-16,79.6,62.6,47.5,52.4,48.2,38.1,94,64,25,30.07,29.96,12,1,15,0.00
2013-3-17,73.3,60.0,46.6,46.9,41.8,37.0,75,54,28,30.13,30.01,13,1,13,0.00
2013-3-18,71.3,58.3,42.8,47.3,43.5,39.2,89,61,33,30.11,30.00,9,1,9,0.00
2013-3-19,72.2,59.9,50.1,51.8,47.3,42.8,92,65,44,30.14,30.04,18,1,18,0.20
2013-3-20,62.7,56.3,50.0,57.2,53.0,48.1,96,89,80,30.12,30.06,16,2,17,0.37
2013-3-21,68.2,54.9,43.6,49.1,42.2,31.8,96,67,27,30.12,29.99,19,2,19,0.01
2013-3-22,65.2,54.5,43.1,33.5,30.0,24.1,58,41,23,30.10,30.02,30,7,30,0.00
2013-3-23,72.5,55.8,40.9,40.0,33.8,28.7,63,45,24,30.16,30.02,18,2,18,0.00
2013-3-24,76.6,59.6,42.0,48.0,41.0,36.6,83,53,25,30.10,29.93,7,0,7,0.00
2013-3-25,71.8,58.5,49.4,51.4,45.0,38.8,83,62,36,29.99,29.89,17,3,17,0.00
2013-3-26,75.9,59.1,46.7,50.9,46.7,42.4,87,66,38,29.99,29.90,14,2,15,0.00
2013-3-27,72.2,59.6,49.6,54.0,49.2,43.7,84,70,51,30.01,29.92,21,2,21,0.00
2013-3-28,72.7,61.2,54.5,54.8,52.3,49.8,88,74,49,30.09,30.01,11,0,11,0.00
2013-3-29,81.5,63.8,48.1,55.2,50.9,46.1,94,67,32,30.11,29.99,12,0,12,0.00
2013-3-30,79.5,63.8,51.7,57.8,51.6,47.1,88,67,41,30.04,29.95,13,1,15,0.00
2013-3-31,72.7,60.5,55.2,58.1,53.6,49.8,96,80,46,30.09,29.98,18,1,18,0.98
2013-4-1,71.3,61.0,52.9,57.3,53.7,51.2,95,79,53,30.16,30.06,10,0,10,0.07
2013-4-2,76.1,61.8,49.5,57.6,52.8,47.8,95,75,44,30.17,30.05,10,0,10,0.00
2013-4-3,78.8,64.4,50.9,58.5,53.5,48.1,92,70,45,30.14,29.96,6,0,6,0.00
2013-4-4,66.7,59.3,52.8,58.8,53.4,42.6,95,81,54,30.11,29.96,18,3,18,0.61
2013-4-5,71.3,60.5,52.2,55.5,52.6,50.3,95,77,51,30.16,30.08,14,1,14,0.01
2013-4-6,72.2,60.6,53.0,57.0,52.9,49.5,91,77,55,30.18,30.08,14,2,14,0.00
2013-4-7,70.5,59.1,51.7,56.9,50.3,45.3,92,73,58,30.14,29.80,24,3,24,0.00
2013-4-8,68.4,57.9,49.4,48.9,38.9,34.6,90,53,29,30.01,29.74,33,7,34,0.00
2013-4-9,75.4,61.6,47.4,42.2,39.0,36.4,67,46,26,30.09,30.01,30,6,30,0.00
2013-4-10,90.6,69.7,50.2,59.5,49.5,40.7,72,51,30,30.18,29.94,11,1,11,0.00
2013-4-11,80.2,68.1,57.8,53.0,45.9,37.6,75,48,23,29.98,29.80,18,2,18,0.00
2013-4-12,86.9,65.5,47.0,58.0,46.5,39.6,86,54,23,29.89,29.77,5,1,12,0.00
2013-4-13,82.3,64.5,51.4,55.8,49.6,45.2,81,61,32,29.87,29.75,11,1,11,0.00
2013-4-14,77.7,61.8,49.0,49.6,42.1,33.3,82,52,23,29.90,29.72,19,2,19,0.00
2013-4-15,68.1,55.8,47.6,48.0,43.5,33.4,88,65,39,29.90,29.79,19,1,19,0.02
2013-4-16,68.5,56.4,47.0,35.8,32.6,29.8,62,42,25,30.16,29.90,26,5,26,0.00
2013-4-17,70.9,56.8,40.6,36.8,32.4,27.7,74,43,24,30.26,30.16,26,4,26,0.00
2013-4-18,80.1,62.3,42.9,43.1,36.4,30.6,65,41,22,30.27,30.16,10,0,10,0.00
2013-4-19,86.7,68.1,50.4,53.0,46.5,40.6,72,48,28,30.23,30.02,9,0,9,0.00
2013-4-20,85.7,69.8,54.2,48.9,43.0,34.6,61,41,18,30.10,29.93,20,2,20,0.00
2013-4-21,90.8,70.8,50.1,52.1,47.7,43.7,81,49,23,30.03,29.89,11,0,11,0.00
2013-4-22,89.2,72.4,54.7,52.3,45.6,38.2,75,43,18,29.96,29.82,21,2,21,0.00
2013-4-23,86.8,71.8,57.4,46.7,37.1,30.5,54,30,17,29.92,29.80,25,4,25,0.00
2013-4-24,92.4,69.2,49.0,53.6,44.0,38.4,78,47,17,29.84,29.72,16,2,16,0.00
2013-4-25,78.9,62.9,51.7,55.1,50.0,46.1,84,65,42,30.07,29.84,16,3,16,0.00
2013-4-26,86.8,65.3,50.0,57.4,51.5,46.7,92,64,36,30.20,30.07,12,2,12,0.00
2013-4-27,93.3,70.0,51.9,60.8,53.6,47.8,86,60,32,30.20,30.00,12,1,12,0.00
2013-4-28,93.3,74.7,55.7,56.9,52.9,45.2,82,52,21,30.03,29.83,13,1,13,0.00
2013-4-29,92.8,76.6,59.2,56.5,52.0,47.6,76,46,24,29.87,29.71,17,2,17,0.00
2013-4-30,83.0,72.8,62.7,52.4,39.4,31.1,52,32,19,29.84,29.73,30,8,30,0.00
2013-5-1,88.5,73.0,57.7,42.3,36.1,29.8,37,27,17,30.07,29.84,25,7,25,0.00
2013-5-2,94.7,74.9,53.1,47.6,39.8,35.3,53,31,15,30.16,30.02,13,1,13,0.00
2013-5-3,94.5,77.3,56.6,53.6,47.5,41.5,65,38,19,30.03,29.74,12,0,12,0.00
2013-5-4,91.3,75.8,61.4,51.3,47.2,41.2,67,40,19,29.74,29.48,25,2,25,0.00
2013-5-5,79.8,66.6,55.8,52.3,49.9,47.7,76,56,37,29.79,29.53,16,2,16,0.00
2013-5-6,74.6,64.7,58.5,57.8,53.9,50.0,91,70,48,29.94,29.79,11,1,15,0.27
2013-5-7,76.8,66.8,57.7,56.7,54.5,52.5,91,67,44,30.00,29.94,12,1,12,0.00
2013-5-8,65.1,63.8,62.2,53.9,53.2,52.3,71,68,67,30.00,29.99,6,0,6,0.00
2013-5-13,69.6,69.3,69.0,57.1,56.8,56.4,65,64,64,29.89,29.88,9,3,9,0.00
2013-5-14,92.3,74.4,59.6,62.6,56.2,48.8,80,56,35,29.89,29.82,17,2,17,0.00
2013-5-15,82.7,67.4,54.7,55.1,50.7,46.6,75,57,36,30.00,29.89,15,3,15,0.00
2013-5-16,79.0,65.6,56.5,55.8,51.8,47.9,78,62,42,29.98,29.88,20,3,20,0.00
2013-5-17,81.2,64.5,52.6,54.8,48.4,43.9,81,59,30,30.02,29.92,16,2,16,0.00
2013-5-18,86.8,67.7,52.0,54.6,49.6,44.5,82,56,28,30.11,30.00,13,1,13,0.00
2013-5-19,85.0,72.0,59.0,54.2,49.4,44.4,79,48,25,30.10,29.93,22,4,22,0.00
2013-5-20,95.5,76.6,60.6,51.8,47.4,39.4,58,39,15,29.99,29.85,18,2,18,0.00
2013-5-21,87.4,71.7,59.1,53.0,46.7,32.3,68,44,15,29.93,29.80,19,3,19,0.00
2013-5-22,74.0,61.5,49.6,44.3,34.1,28.3,63,38,20,29.99,29.84,22,4,22,0.00
2013-5-23,78.8,63.4,48.6,47.3,42.5,34.1,77,51,21,29.97,29.85,13,1,13,0.00
2013-5-24,83.0,66.4,52.2,50.5,45.2,34.0,78,50,19,29.99,29.87,16,2,16,0.00
2013-5-25,82.4,64.9,51.9,53.0,48.8,45.3,80,59,32,29.98,29.90,16,3,16,0.00
2013-5-26,83.7,66.4,53.0,55.1,51.0,48.2,85,61,31,30.06,29.97,16,2,16,0.00
2013-5-27,69.9,61.3,54.2,57.4,52.0,48.0,93,72,58,30.08,29.97,14,3,14,0.06
2013-5-28,81.9,68.4,57.6,58.9,55.9,52.7,93,68,39,29.98,29.85,13,1,13,0.01
2013-5-29,85.6,70.6,57.7,58.3,53.6,36.8,90,59,19,29.91,29.82,16,2,16,0.10
2013-5-30,88.8,71.3,55.3,58.3,52.3,44.8,82,55,23,29.94,29.87,12,1,12,0.00
2013-5-31,93.1,75.5,56.0,55.3,51.7,46.9,86,48,23,29.98,29.85,19,2,19,0.00
2013-6-1,96.3,80.3,59.3,61.1,55.5,49.0,78,46,25,29.87,29.70,10,1,10,0.00
2013-6-2,101.0,80.1,61.8,62.5,57.2,53.3,78,49,24,29.71,29.58,12,1,12,0.00
2013-6-3,95.5,75.6,61.1,63.5,56.4,51.6,74,54,32,29.76,29.63,18,2,18,0.00
2013-6-4,87.5,70.1,57.5,61.2,55.2,50.6,80,61,41,29.86,29.75,16,4,16,0.00
2013-6-5,91.8,70.1,54.8,64.7,56.0,50.0,86,63,39,29.96,29.81,16,3,16,0.00
2013-6-6,98.7,73.4,55.1,67.1,57.9,50.8,86,62,33,29.90,29.75,15,2,15,0.00
2013-6-7,104.1,81.3,59.4,73.5,63.0,53.3,81,57,31,29.84,29.65,12,1,12,0.00
2013-6-8,81.9,74.1,69.0,65.1,63.7,62.3,82,70,56,29.70,29.66,0,0,0,0.00
2013-7-8,77.6,68.3,61.2,56.7,54.9,53.2,75,63,44,29.90,29.87,7,3,9,0.00
2013-7-9,95.9,95.9,95.9,54.5,54.5,54.3,25,25,25,29.87,29.87,0,0,0,0.00
2013-7-10,66.6,66.6,66.6,51.8,51.8,51.8,59,59,59,29.85,29.85,3,3,5,0.00
2013-7-11,94.2,73.0,56.0,58.4,53.6,50.6,83,55,24,29.89,29.78,14,3,16,0.00
2013-7-12,93.1,73.2,56.8,61.7,56.0,51.8,84,58,30,29.90,29.79,9,3,16,0.00
2013-7-13,99.0,78.0,59.0,62.7,55.1,46.7,79,50,19,29.92,29.82,12,2,14,0.00
2013-7-14,100.1,78.3,60.8,62.3,55.3,50.1,74,48,23,29.94,29.80,13,2,14,0.00
2013-7-15,90.4,70.6,56.2,59.5,54.3,50.8,82,59,30,29.85,29.73,15,4,17,0.00
2013-7-16,82.1,67.0,55.6,57.9,54.4,51.7,88,67,41,29.97,29.80,15,4,20,0.00
2013-7-17,96.0,73.1,56.1,63.4,56.7,52.4,88,61,27,30.07,29.94,13,2,14,0.00
2013-7-18,101.3,78.5,58.0,63.6,56.3,48.7,86,52,18,30.01,29.85,10,1,13,0.00
2013-7-19,104.5,80.8,60.6,64.6,58.2,53.8,79,50,23,29.89,29.72,11,1,14,0.00
2013-7-20,104.7,80.6,61.6,67.7,59.3,54.1,77,52,28,29.80,29.62,13,2,14,0.00
2013-7-21,98.6,78.9,61.4,64.4,57.6,49.6,77,51,30,29.79,29.67,21,3,21,0.00
2013-7-22,94.6,79.2,66.1,60.0,55.5,48.0,72,46,23,29.91,29.79,16,3,22,0.00
2013-7-23,94.4,80.0,69.2,60.3,55.5,52.2,59,44,27,29.95,29.81,11,2,18,0.00
2013-7-24,102.9,82.5,64.5,66.7,59.3,52.8,74,48,28,29.94,29.80,11,2,11,0.00
2013-7-25,100.9,81.9,67.0,68.9,60.3,54.8,67,50,34,29.92,29.83,15,3,18,0.00
2013-7-26,99.8,77.5,61.4,66.4,58.9,54.4,79,55,33,30.02,29.88,13,3,15,0.00
2013-7-27,94.7,74.9,59.0,64.9,58.6,53.5,83,60,35,29.95,29.76,13,3,15,0.00
2013-7-28,92.4,72.7,58.0,65.2,57.9,52.3,86,62,37,29.82,29.70,17,3,17,0.00
2013-7-29,85.1,67.8,55.7,58.7,54.7,51.6,87,65,35,29.94,29.76,15,4,19,0.00
2013-7-30,94.3,71.5,55.7,64.1,56.2,49.0,89,63,24,30.06,29.75,12,2,19,0.00
2013-7-31,92.2,71.5,56.4,61.3,55.7,51.9,86,61,32,30.03,29.89,13,3,16,0.00
2013-8-1,90.7,72.6,58.0,57.7,54.7,51.9,81,56,31,30.01,29.88,12,3,17,0.00
2013-8-2,96.2,76.1,59.0,59.8,55.3,51.8,82,53,23,29.94,29.81,11,1,13,0.00
2013-8-3,95.2,74.7,57.8,61.2,55.7,51.8,83,55,28,29.93,29.82,10,2,11,0.00
2013-8-4,93.7,72.3,55.7,62.2,55.5,51.2,86,59,30,29.95,29.85,13,2,15,0.00
2013-8-5,94.4,71.4,54.8,62.0,54.4,50.3,89,61,23,29.98,29.85,12,2,15,0.00
2013-8-6,88.3,68.6,54.9,59.9,55.0,51.2,88,65,34,29.98,29.89,17,3,17,0.00
2013-8-7,82.7,67.6,56.8,60.8,56.3,52.7,86,69,46,30.05,29.96,12,3,16,0.00
2013-8-8,88.2,69.5,57.3,61.0,56.4,53.1,92,66,36,29.99,29.86,13,2,14,0.00
2013-8-9,85.9,68.8,55.3,60.6,56.2,52.0,89,67,40,29.93,29.85,12,3,16,0.00
2013-8-10,90.8,70.7,56.7,63.5,57.6,53.8,90,66,35,30.00,29.91,11,2,14,0.00
2013-8-11,94.2,73.9,58.7,63.7,58.3,55.5,91,63,31,29.99,29.85,12,2,13,0.00
2013-8-12,94.4,74.9,58.7,63.0,56.2,50.0,86,57,23,29.96,29.86,10,2,11,0.00
2013-8-13,98.9,78.2,58.6,61.4,56.0,50.6,83,50,20,29.96,29.83,7,1,10,0.00
2013-8-14,100.5,79.0,62.2,64.0,57.1,52.9,72,50,23,29.92,29.81,10,1,15,0.00
2013-8-15,99.5,79.2,64.2,66.7,62.2,59.1,85,60,27,29.92,29.83,10,3,14,0.00
2013-8-16,101.0,80.8,65.7,68.3,62.9,55.3,88,59,28,29.94,29.85,12,2,12,0.00
2013-8-17,99.1,78.7,65.7,67.3,60.0,54.5,75,54,31,29.94,29.77,13,2,13,0.00
2013-8-18,103.4,83.4,64.3,68.2,63.0,58.0,82,54,29,29.86,29.72,6,1,13,0.00
2013-8-19,103.4,85.2,71.5,73.9,65.7,59.9,79,54,31,29.85,29.72,15,1,15,0.00
2013-8-20,98.2,79.3,67.4,72.3,62.4,57.2,73,58,37,29.84,29.72,12,3,15,0.00
2013-8-21,93.6,75.2,62.1,62.1,56.5,48.3,79,56,22,29.88,29.78,11,3,15,0.00
2013-8-22,91.0,72.5,59.3,60.2,55.8,52.7,81,58,29,29.91,29.79,13,3,15,0.00
2013-8-23,94.4,72.5,57.1,61.2,56.7,52.7,88,61,30,29.89,29.72,11,2,14,0.00
2013-8-24,93.1,73.8,60.8,62.4,57.8,53.9,79,60,33,29.84,29.76,13,3,16,0.00
2013-8-25,89.5,74.7,64.0,65.7,61.5,57.4,88,66,42,29.91,29.82,12,4,17,0.00
2013-8-26,92.2,73.7,60.1,61.7,57.5,52.3,89,61,26,29.98,29.84,11,2,14,0.00
2013-8-27,96.3,75.4,60.3,62.6,57.1,52.7,84,57,27,29.87,29.74,11,1,15,0.00
2013-8-28,96.3,76.5,61.6,64.1,60.1,54.7,87,61,25,29.88,29.80,12,2,14,0.00
2013-8-29,97.0,77.4,62.4,65.4,61.9,58.7,90,63,29,30.01,29.87,12,2,15,0.00
2013-8-30,99.2,79.8,62.5,67.1,62.1,58.2,90,59,28,30.01,29.85,7,1,15,0.00
2013-8-31,98.4,79.3,65.4,64.7,57.6,51.0,77,51,23,29.93,29.81,13,2,15,0.00
2013-9-1,93.6,75.8,63.4,61.2,57.9,50.9,79,57,27,29.90,29.80,12,3,16,0.00
2013-9-2,79.1,72.0,67.2,68.2,63.1,60.6,91,74,59,29.92,29.84,10,2,12,0.30
2013-9-3,88.3,73.4,62.9,62.5,58.1,53.3,85,62,31,29.96,29.87,13,2,15,0.00
2013-9-4,91.4,73.3,61.4,61.8,58.1,52.2,87,63,27,30.00,29.87,14,2,15,0.00
2013-9-5,91.6,73.3,60.6,61.4,57.9,54.8,86,62,29,29.97,29.87,13,2,13,0.00
2013-9-6,92.1,74.1,57.1,60.8,56.8,53.2,89,59,28,29.97,29.80,11,1,15,0.00
2013-9-7,101.0,79.3,57.3,61.1,55.5,52.2,88,50,22,29.87,29.75,5,0,6,0.00
2013-9-8,102.0,80.5,60.3,63.5,58.0,54.3,81,50,24,29.84,29.68,9,1,12,0.00
2013-9-9,103.9,82.0,61.3,65.4,59.1,54.5,81,50,26,29.77,29.60,5,0,9,0.00
2013-9-10,91.2,74.6,64.7,64.2,59.4,56.0,79,61,39,29.82,29.64,18,3,18,0.00
2013-9-11,84.5,70.2,60.9,63.4,59.8,56.7,87,71,47,29.96,29.82,11,2,17,0.00
2013-9-12,91.3,72.8,60.0,65.4,60.7,57.4,92,69,37,29.95,29.80,10,2,14,0.00
2013-9-13,96.0,74.6,60.5,66.1,60.4,56.7,88,64,37,29.86,29.67,12,2,14,0.00
2013-9-14,90.4,72.6,60.1,64.0,58.7,54.8,85,64,40,29.77,29.65,11,2,13,0.00
2013-9-15,91.1,71.0,57.5,60.8,57.1,53.3,87,65,33,29.82,29.69,12,3,15,0.00
2013-9-16,90.2,72.3,59.8,65.0,59.2,55.5,92,67,34,29.87,29.71,13,2,13,0.00
2013-9-17,86.0,70.5,59.8,58.0,55.8,52.4,83,62,33,29.85,29.75,13,2,18,0.00
2013-9-18,85.5,70.6,56.6,55.5,50.8,48.5,75,52,29,29.90,29.77,11,2,20,0.00
2013-9-19,93.9,73.5,54.7,56.5,51.4,45.8,80,49,25,29.85,29.69,5,0,7,0.00
2013-9-20,86.6,70.6,59.5,62.3,54.5,45.7,82,58,34,29.82,29.71,13,3,20,0.00
2013-9-21,69.0,62.7,56.3,60.2,58.0,54.0,94,85,64,29.88,29.78,13,2,15,0.68
2013-9-22,76.3,63.0,53.1,58.6,54.7,51.7,95,77,45,29.99,29.88,4,0,9,0.01
2013-9-23,86.3,68.4,52.3,60.8,56.4,50.0,94,69,39,30.02,29.89,7,0,9,0.00
2013-9-24,82.7,69.3,60.7,58.8,56.2,50.2,83,65,41,29.95,29.80,11,2,16,0.00
2013-9-25,73.8,63.4,52.3,52.6,46.8,42.0,84,57,32,29.91,29.78,11,1,24,0.00
2013-9-26,75.0,61.7,49.4,45.7,43.7,41.9,76,54,33,29.97,29.81,19,4,23,0.00
2013-9-27,78.7,62.6,46.9,49.7,44.7,40.6,80,55,28,30.09,29.97,9,0,11,0.00
2013-9-28,85.5,68.7,50.4,53.7,44.8,40.6,77,46,22,30.09,29.95,10,0,11,0.00
2013-9-29,85.3,68.2,50.8,62.0,57.3,40.8,87,70,22,30.09,29.98,11,2,15,0.00
2013-9-30,80.7,69.9,63.0,63.7,61.1,59.2,88,75,55,30.05,29.92,10,2,15,0.00
2013-10-1,77.1,65.2,53.8,59.5,52.1,47.6,87,65,39,30.00,29.89,6,1,10,0.00
2013-10-2,82.4,65.3,50.9,52.0,48.2,42.4,83,57,30,29.99,29.89,6,0,10,0.00
2013-10-3,74.8,62.3,50.4,42.8,40.2,36.2,69,46,28,30.03,29.91,22,5,30,0.00
2013-10-4,81.1,66.2,55.9,44.2,39.5,36.0,52,39,25,30.10,29.98,16,5,24,0.00
2013-10-5,85.1,63.7,44.4,48.1,41.1,36.2,75,48,21,30.22,30.10,5,0,6,0.00
2013-10-6,86.8,64.2,45.8,52.5,44.9,40.2,82,54,21,30.15,29.98,5,0,6,0.00
2013-10-7,89.2,67.5,48.4,50.5,45.4,41.0,82,49,20,29.99,29.83,5,0,6,0.00
2013-10-8,77.6,62.8,49.1,48.7,44.2,40.9,75,53,30,29.89,29.64,7,1,13,0.00
2013-10-9,75.9,61.9,51.6,48.2,42.6,39.3,69,51,33,29.74,29.57,19,1,21,0.00
2013-10-10,75.9,62.7,52.7,49.5,46.8,40.9,75,58,36,29.98,29.74,11,1,14,0.00
2013-10-11,78.3,63.3,50.2,52.6,49.1,45.9,86,62,37,30.06,29.94,6,0,7,0.00
2013-10-12,78.4,62.2,47.7,52.4,48.0,44.3,90,63,34,29.99,29.84,10,1,15,0.00
2013-10-13,75.9,61.9,50.3,49.0,45.6,42.3,81,58,33,30.03,29.87,14,1,15,0.00
2013-10-14,78.5,60.4,44.5,47.2,43.6,39.9,86,58,29,30.13,29.99,5,0,10,0.00
2013-10-15,82.4,62.1,45.3,45.8,41.2,38.3,80,51,24,30.06,29.93,11,1,15,0.00
2013-10-16,83.2,62.5,45.0,51.0,43.0,38.2,79,53,26,30.11,29.98,4,0,6,0.00
2013-10-17,82.1,62.3,45.4,49.8,44.5,40.5,83,57,26,30.09,29.94,4,0,9,0.00
2013-10-18,83.5,63.1,45.3,51.4,45.1,39.8,82,56,27,30.06,29.95,4,0,6,0.00
2013-10-19,85.1,63.6,45.0,51.8,46.5,40.5,87,58,26,30.08,29.97,4,0,6,0.00
2013-10-20,86.6,64.3,44.5,50.7,46.1,40.4,89,57,24,30.01,29.86,4,0,6,0.00
2013-10-21,85.4,65.4,47.3,52.7,47.6,41.8,83,55,29,29.99,29.88,3,0,5,0.00
2013-10-22,84.8,64.4,47.6,53.7,49.0,43.9,89,61,30,30.01,29.88,7,0,9,0.00
2013-10-23,86.5,64.1,45.6,51.5,47.1,42.3,90,60,25,29.94,29.82,7,0,7,0.00
2013-10-24,74.1,59.4,49.3,53.3,49.5,46.4,90,72,47,30.04,29.89,6,1,10,0.00
2013-10-25,76.9,60.1,46.5,52.7,48.5,43.4,92,69,37,30.17,30.03,10,1,10,0.00
2013-10-26,79.9,61.8,46.2,53.5,48.5,42.1,88,65,35,30.15,29.98,7,0,9,0.00
2013-10-27,68.5,55.4,47.6,52.5,46.6,42.3,85,73,53,29.99,29.56,26,2,36,0.00
2013-10-28,67.8,55.3,45.4,47.4,44.6,42.1,91,70,40,29.84,29.59,11,1,12,0.00
2013-10-29,58.6,53.9,48.5,47.4,45.9,42.9,82,74,63,30.04,29.84,6,0,6,0.00
2013-10-30,68.1,53.6,41.2,49.1,44.2,39.1,93,73,46,30.16,29.84,8,0,10,0.00
2013-10-31,73.0,55.2,42.8,48.3,44.1,39.8,90,69,39,30.18,30.06,3,0,6,0.00
2013-11-1,76.8,57.4,42.5,50.5,45.2,39.8,93,68,35,30.18,30.00,3,0,7,0.00
2013-11-2,76.2,59.1,43.0,52.9,46.0,38.2,87,64,43,30.02,29.85,10,1,10,0.00
2013-11-3,64.2,55.8,46.4,38.8,33.9,31.8,57,44,32,30.03,29.89,20,4,25,0.00
2013-11-4,67.9,54.7,38.9,36.6,34.1,32.0,77,48,29,30.07,29.89,22,4,27,0.00
2013-11-5,71.3,56.2,40.7,39.5,35.8,31.8,74,48,29,30.23,30.06,6,0,18,0.00
2013-11-6,73.5,56.9,42.3,44.4,39.8,35.7,81,56,30,30.28,30.17,5,0,6,0.00
2013-11-7,76.9,60.3,47.3,46.1,43.2,39.6,81,56,30,30.18,30.04,6,0,10,0.00
2013-11-8,76.4,58.6,43.8,48.4,42.5,38.0,83,58,33,30.08,29.93,1,0,4,0.00
2013-11-9,75.5,57.2,42.5,49.5,44.5,39.1,90,66,37,30.05,29.96,3,0,4,0.00
2013-11-10,74.7,56.7,42.7,48.8,44.7,39.1,89,67,38,30.11,30.03,4,0,5,0.00
2013-11-11,71.6,55.2,41.3,48.7,44.5,38.6,93,70,40,30.16,30.07,2,0,4,0.00
2013-11-12,72.1,60.1,50.5,47.9,45.3,42.6,77,60,39,30.26,30.14,10,0,10,0.00
2013-11-13,77.6,58.3,42.5,50.6,45.2,39.5,91,65,36,30.24,30.04,8,0,11,0.00
2013-11-14,67.1,56.8,48.5,54.0,47.9,42.8,89,72,59,30.08,29.82,5,0,6,0.00
2013-11-15,68.3,53.7,42.9,45.3,39.6,35.9,92,63,31,29.83,29.69,11,1,16,0.00
2013-11-16,65.6,54.6,47.1,46.0,42.0,39.1,81,64,42,29.92,29.74,6,1,11,0.00
2013-11-17,67.2,53.3,40.2,53.0,44.1,36.6,89,72,52,30.08,29.91,2,0,4,0.00
2013-11-18,61.8,51.6,41.3,49.2,44.7,38.9,93,78,58,30.15,30.06,15,1,15,0.00
2013-11-19,62.2,55.7,51.0,53.8,50.8,46.9,94,84,70,30.10,29.95,10,1,11,0.44
2013-11-20,57.1,54.8,53.4,55.7,53.4,52.0,96,95,94,29.96,29.83,11,2,15,0.21
2013-11-21,61.6,53.7,47.9,52.9,39.4,29.2,95,61,39,30.03,29.88,20,7,29,0.00
2013-11-22,70.1,55.4,45.3,42.7,29.6,25.8,82,39,22,30.05,29.92,17,3,25,0.00
2013-11-23,64.1,49.8,37.3,48.6,42.2,35.4,94,77,50,30.12,30.00,4,0,7,0.00
2013-11-24,63.5,48.8,36.9,46.5,41.4,34.8,94,77,53,30.26,30.11,2,0,4,0.00
2013-11-25,62.9,47.7,36.3,46.3,40.8,34.3,95,79,52,30.35,30.26,7,0,8,0.01
2013-11-26,60.2,47.9,37.7,46.0,41.1,35.9,94,79,52,30.29,30.06,6,0,6,0.00
2013-11-27,62.9,50.0,40.3,47.9,43.0,38.4,93,78,57,30.06,29.87,5,0,10,0.00
2013-11-28,69.9,54.0,41.4,47.5,43.4,39.0,92,70,40,30.07,29.89,5,0,6,0.00
2013-11-29,69.5,53.0,40.3,46.9,42.7,37.8,92,70,41,30.22,29.89,5,0,6,0.00
2013-11-30,67.0,52.2,42.0,47.3,42.9,38.7,91,73,47,30.29,30.18,4,0,7,0.00
2013-12-1,67.1,52.4,38.9,48.8,43.6,36.5,93,74,49,30.36,30.22,3,0,5,0.00
2013-12-2,67.1,52.9,40.1,49.9,45.0,37.4,92,76,52,30.23,29.89,11,1,15,0.00
2013-12-3,55.1,50.4,39.7,51.3,35.8,24.3,92,60,31,29.93,29.80,17,4,26,0.00
2013-12-4,48.8,39.4,30.2,25.5,21.5,16.8,72,50,32,30.09,29.92,17,2,20,0.00
2013-12-5,49.2,36.7,28.0,24.9,20.8,18.3,73,54,32,30.18,30.09,7,0,10,0.00
2013-12-6,46.4,38.8,27.8,36.5,28.7,21.1,88,67,52,30.22,29.91,22,3,25,0.44
2013-12-7,45.5,38.6,30.1,39.4,32.2,26.3,94,79,52,30.26,29.90,15,1,21,0.00
2013-12-8,42.4,33.3,27.3,28.1,25.6,22.7,91,74,51,30.35,30.25,10,1,11,0.00
2013-12-9,50.1,35.1,23.9,30.7,25.9,19.9,88,71,44,30.46,30.32,5,0,7,0.00
2013-12-10,52.7,37.4,26.1,31.8,28.3,23.8,91,72,42,30.45,30.22,4,0,7,0.01
2013-12-11,55.6,41.2,28.5,40.3,30.7,25.4,91,69,38,30.30,30.21,4,0,6,0.00
2013-12-12,59.3,42.3,28.4,37.7,32.1,25.6,91,70,40,30.30,30.17,4,0,6,0.00
2013-12-13,60.0,44.0,31.6,38.8,34.0,29.2,92,70,43,30.34,30.24,7,0,9,0.00
2013-12-14,60.0,44.6,32.1,39.3,34.5,28.6,89,69,45,30.44,30.33,5,0,6,0.00
2013-12-15,60.8,43.6,30.8,41.4,35.3,28.8,93,75,46,30.40,30.26,3,0,4,0.00
2013-12-16,64.7,46.0,33.0,41.9,36.4,30.1,91,72,41,30.27,30.14,2,0,3,0.00
2013-12-17,62.2,47.1,36.5,44.9,38.9,33.5,92,75,49,30.22,30.04,6,0,7,0.00
2013-12-18,60.8,48.7,39.5,45.0,41.1,36.5,97,77,51,30.04,29.71,7,0,9,0.00
2013-12-19,59.0,47.9,37.9,43.9,33.4,22.7,98,62,33,29.92,29.68,23,5,35,0.00
2013-12-20,62.8,48.4,36.8,35.2,25.2,19.7,70,42,22,30.02,29.91,11,2,19,0.00
2013-12-21,59.8,46.3,34.7,39.4,34.4,31.0,86,65,39,30.11,29.97,6,0,10,0.00
2013-12-22,62.0,46.6,33.1,40.8,35.7,29.1,89,68,43,30.31,30.11,4,0,4,0.00
2013-12-23,62.9,47.5,35.1,43.0,38.1,32.3,92,72,46,30.43,30.30,6,0,7,0.00
2013-12-24,64.5,48.5,36.3,44.4,39.3,33.1,91,72,47,30.34,30.21,5,0,5,0.00
2013-12-25,63.3,46.5,33.0,46.2,38.7,30.7,92,76,52,30.34,30.22,4,0,6,0.00
2013-12-26,64.5,46.1,32.4,43.6,36.3,30.3,99,72,41,30.30,30.19,5,0,6,0.00
2013-12-27,58.1,44.3,33.2,41.4,35.7,30.5,92,73,50,30.28,30.13,4,0,7,0.00
2013-12-28,68.1,47.4,30.9,38.5,33.5,28.9,95,63,32,30.15,30.01,15,2,18,0.00
2013-12-29,62.6,46.8,33.4,41.4,35.1,29.1,85,65,44,30.22,30.10,4,0,9,0.00
2013-12-30,61.4,46.0,32.0,40.2,35.7,29.7,92,70,43,30.28,30.20,2,0,5,0.00
2013-12-31,63.3,47.6,38.3,40.7,36.3,32.8,92,68,39,30.29,30.16,6,0,10,0.00
2014-1-1,63.2,47.5,35.8,38.9,35.1,30.4,82,64,39,30.24,30.13,5,0,6,0.00
2014-1-2,65.6,48.4,35.4,41.0,36.5,32.7,90,66,36,30.21,30.06,5,0,7,0.00